DELTA 1 DEB, 29187

Orbit data source: Space-Track

DELTA 1 DEB, 29187 is space debris in LEO originally from a launch on Thu, 11 Jan 1968 UTC launched from the Air Force Western Test Range (AFWTR). Debris objects in space refer to the collection of defunct objects orbiting the Earth. Examples of debris include non-operational satellites, rocket bodies, and fragments generated from explosions, collisions, or faulty payload assembly.

Loading next visibility...
Identifier
29187, 1968-002L
Orbit
LEO
Last TLE update
3 days ago
Origin
Manufacturer
Unknown
Mission
Spacecraft
Bus & Motor
Unknown
Mass
Unknown
Launch date (UTC)
1968-01-11 (58 years ago)
Launch vehicle
Unknown
Launch site
Air Force Western Test Range (AFWTR)
Object type
Payload
Rocket body
Debris
Shape & HBR
Unknown
Radar Cross Section
Small (<0.1 m²)

Expand to show TLE details & history

TLE from 3 days ago
0 DELTA 1 DEB
1 29187U 68002L   25197.24417818  .00000092  00000-0  52190-3 0  9993
2 29187 105.8071 181.2386 0296562  56.9454 323.9005 12.91156156558752
Epoch: 2025-07-16T05:51Z
TLE epoch observation values (Epoch: 2025-07-16T05:51:36.994Z)
Latitude
18.04621°
Longitude
153.74217°
Altitude
1,117.332 km
Speed
7.381 km/s
True Right ascension
11h 43m 53s
True Declination
17° 57' 00"
Sunlit
Object was in daylight at epoch
Visualization orbit readout
Latitude
18.59995°
Longitude
-11.65792°
Altitude
1,363.828 km
Speed
7.148 km/s
Apparent Right ascension
00h 35m 56s
Apparent Declination
-7° 31' 08"
Sunlit
Object is in daylight
Visualization observer readout
Local Sidereal Time
12:26:26
Azimuth
355.605° N
Elevation
-57.533°
Doppler factor
1
Orbital elements
Apogee altitude
1,522.258 km
Perigee altitude
1,067.163 km
Semi-major axis
7,672.847 km
Eccentricity
0.02966
Inclination
105.8071°
RAAN
181.2386°
Arg. of periapsis
56.9454°
True anomaly
321.83693°
Mean anomaly
323.9005°
Eccentric anomaly
322.87495°
Mean motion
3.2293 °/min
Orbital period
111.48 mins
BSTAR
0.0005219
Loading maneuver chart data...
Loading SW <> Apogee altitude chart data...
Loading historical data...
Loading historical data...
Loading historical data...
Loading historical data...
Loading historical data...
Loading historical data...
Loading historical data...
|